STARLINK-5307, 55658

Orbit data source: Space-Track

STARLINK-5307, 55658 is a payload satellite owned by SpaceX/Seattle (US) in LEO that was launched on Fri, 17 Feb 2023 UTC via an FALCON 9 launch vehicle from the Air Force Western Test Range (AFWTR). Payload-class satellites include a variety of spacecraft equipped with specific instruments for various scientific and technological missions. These include communications satellites like Starlink; space stations such as the ISS; scientific satellites like the Hubble; Earth observation satellites from companies like Planet Labs, Umbra, and HawkEye 360; GPS; miniature CubeSats for education and research; and military/defense satellites.

Loading next visibility...
Identifier
55658, 2023-021AG
Orbit
LEO
Country
Flag of USUS
Related business
Manufacturer
SpaceX/Seattle
Mission
Operational Commercial Communications
Bus & Motor
STARLINK, Unknown motor
Mass
305 kg wet, ~290 kg dry
Launch date (UTC)
2023-02-17 (3 years ago)
Launch vehicle
FALCON 9
Launch site
Air Force Western Test Range (AFWTR)
Object type
Payload
Rocket body
Debris
Shape & HBR
Box + 1 Pan, 10.1 m
Radar Cross Section
13.562 m², Large (>1 m²)

Expand to show TLE details & history
Last TLE update: 2 days ago

TLE from 2 days ago
0 STARLINK-5307
1 55658U 23021AG  26171.36238674 -.00000180  00000-0 -72635-5 0  9992
2 55658  69.9997 285.4631 0003224 270.1322  89.9467 14.98331699184174
Epoch: 2026-06-20T08:41Z
TLE epoch observation values (Epoch: 2026-06-20T08:41:50.214Z)
Latitude
-0.00007°
Longitude
-113.57425°
Altitude
574.473 km
Speed
7.574 km/s
True Right ascension
19h 01m 51s
True Declination
0° 00' 00"
Sunlit
Object was in full shadow at epoch
Visualization orbit readout
Latitude
Unknown
Longitude
Unknown
Altitude
Unknown
Speed
Unknown
Apparent Right ascension
Unknown
Apparent Declination
Unknown
Sunlit
N/A
Visualization observer readout
Local Sidereal Time
21:39:34
Azimuth
Unknown
Elevation
Unknown
Doppler factor
Unknown
Orbital elements
Apogee altitude
572.239 km
Perigee altitude
567.759 km
Semi-major axis
6,948.136 km
Eccentricity
0.00032
Inclination
69.9997°
RAAN
285.4631°
Arg. of periapsis
270.1322°
True anomaly
89.98364°
Mean anomaly
89.9467°
Eccentric anomaly
89.96517°
Mean motion
3.74749 °/min
Orbital period
96.06 mins
BSTAR
-0.0000072635
Loading maneuver chart data...
Computing Atmospheric mass density...

Documentation

Showing up to 5 results
|